Weather History for Ashland, WI

Change the Weather History Date:

Thursday, July 4, 2013

  Actual Average Record
Temperature  
Mean Temperature 65 °F -  
Max Temperature 84 °F 78 °F 95 °F (1990)
Min Temperature 46 °F 53 °F 37 °F (1961)
Growing Degree Days 15 (Base 50)    
Moisture  
Dew Point 56 °F    
Average Humidity 66    
Maximum Humidity 97    
Minimum Humidity 41    
Precipitation  
Precipitation 0.00 in - - ()
Sea Level Pressure  
Sea Level Pressure 29.94 in    
Wind  
Wind Speed 4 mph (SSW)    
Max Wind Speed 14 mph    
Max Gust Speed 22 mph    
Visibility 10 miles    
Events      
Averages and records for this station are not official NWS values.
T = Trace of Precipitation, MM = Missing Value Source: NWS Daily Summary

Daily Weather History Graph

Daily Weather History Graph

Search for Another Location

Airport:

Trip Planner

Search our weather history database for the weather conditions in past years. The results will help you decide how hot, cold, wet, or windy it might be!

Date:

Astronomy

Jul. 04, 2013 Rise Set
Actual Time 5:16 AM CDT 8:59 PM CDT
Civil Twilight 4:37 AM CDT 9:38 PM CDT
Nautical Twilight 3:45 AM CDT 10:30 PM CDT
Astronomical Twilight 2:32 AM CDT 11:42 PM CDT
Moon 2:38 AM CDT (7/4) 5:59 PM CDT (7/4)
Length of Visible Light 17h 00m
Length of Day
15h 42m
Waning Crescent, 11% of the Moon is Illuminated
Jul 4
Waning Crescent
Jul 8
New
Jul 15
First Quarter
Jul 22
Full
Jul 29
Last Quarter

Hourly Weather History & Observations

Time (CDT) Temp. Heat Index Dew Point Humidity Pressure Visibility Wind Dir Wind Speed Gust Speed Precip Events Conditions
12:53 AM 48.9 °F - 48.0 °F 97% 29.99 in 10.0 mi Calm Calm - N/A   Clear
1:53 AM 48.9 °F - 48.0 °F 97% 29.99 in 10.0 mi WSW 3.5 mph - N/A   Clear
2:53 AM 48.9 °F - 46.9 °F 93% 29.98 in 10.0 mi Calm Calm - N/A   Clear
3:53 AM 46.0 °F - 45.0 °F 96% 29.98 in 10.0 mi Calm Calm - N/A   Clear
4:53 AM 48.9 °F - 48.0 °F 97% 29.98 in 9.0 mi WSW 3.5 mph - N/A   Clear
5:53 AM 48.9 °F - 48.0 °F 97% 29.98 in 6.0 mi Calm Calm - N/A   Clear
6:53 AM 57.9 °F - 55.9 °F 93% 29.99 in 10.0 mi Calm Calm - N/A   Clear
7:53 AM 66.9 °F - 60.1 °F 79% 29.99 in 10.0 mi SSW 4.6 mph - N/A   Clear
8:53 AM 72.0 °F - 59.0 °F 64% 29.98 in 10.0 mi SW 9.2 mph - N/A   Clear
9:53 AM 75.0 °F - 59.0 °F 57% 29.97 in 10.0 mi SSW 3.5 mph - N/A   Clear
10:53 AM 78.1 °F - 60.1 °F 54% 29.96 in 10.0 mi Variable 5.8 mph - N/A   Clear
11:53 AM 82.0 °F 82.4 °F 60.1 °F 47% 29.95 in 10.0 mi South 6.9 mph - N/A   Clear
12:53 PM 82.9 °F 82.4 °F 57.0 °F 41% 29.93 in 10.0 mi SW 8.1 mph - N/A   Clear
1:53 PM 84.0 °F 83.5 °F 57.9 °F 41% 29.91 in 10.0 mi SSW 11.5 mph 17.3 mph N/A   Scattered Clouds
2:53 PM 84.0 °F 83.8 °F 59.0 °F 43% 29.90 in 10.0 mi SSW 11.5 mph 18.4 mph N/A   Scattered Clouds
3:53 PM 82.9 °F 83.2 °F 60.1 °F 46% 29.90 in 10.0 mi SW 5.8 mph - N/A   Scattered Clouds
4:53 PM 84.0 °F 83.5 °F 57.9 °F 41% 29.90 in 10.0 mi SW 13.8 mph 21.9 mph N/A   Mostly Cloudy
5:53 PM 82.9 °F 83.2 °F 60.1 °F 46% 29.89 in 10.0 mi SSW 13.8 mph 18.4 mph N/A   Clear
6:53 PM 82.0 °F 82.4 °F 60.1 °F 47% 29.89 in 10.0 mi SSW 10.4 mph - N/A   Clear
7:53 PM 79.0 °F - 60.1 °F 52% 29.88 in 10.0 mi SSW 6.9 mph - N/A   Clear
8:53 PM 75.0 °F - 59.0 °F 57% 29.89 in 10.0 mi South 4.6 mph - N/A   Scattered Clouds
9:53 PM 73.0 °F - 60.1 °F 64% 29.90 in 10.0 mi South 5.8 mph - N/A   Clear
10:53 PM 72.0 °F - 60.1 °F 66% 29.90 in 10.0 mi South 8.1 mph - N/A   Clear
11:53 PM 73.9 °F - 59.0 °F 59% 29.89 in 10.0 mi SSW 12.7 mph 19.6 mph N/A   Clear